START_TIME,STEP,MOV.,H8,t_acc.,H43,t_acc.,M25,t_acc.,H9,t_acc.
1989-08-27T09:00:30.070 ,4,0,0.,12.0,0.,12.0,0.,12.0,0.,12.0
1989-08-27T09:00:42.070 ,4,0,0.,12.0,0.,12.0,0.,12.0,0.,12.0
1989-08-27T09:00:54.060 ,5,0,0.,12.0,0.,12.0,0.,12.0,0.,12.0
1989-08-27T09:01:06.060 ,5,0,0.,12.0,0.,12.0,0.,12.0,0.,12.0
1989-08-27T09:01:18.060 ,5,0,0.,12.0,0.,12.0,0.,12.0,0.,12.0
1989-08-27T09:01:30.060 ,5,0,0.,12.0,0.,12.0,0.,12.0,0.,12.0
1989-08-27T09:01:42.060 ,6,0,0.,12.0,0.,12.0,0.,12.0,0.,12.0
1989-08-27T09:01:54.060 ,6,0,0.,12.0,0.,12.0,0.,12.0,0.,12.0
1989-08-27T09:02:06.060 ,6,0,0.,12.0,0.,12.0,0.,12.0,0.,12.0
1989-08-27T09:02:18.060 ,6,0,0.,12.0,0.,12.0,0.,12.0,0.,12.0
1989-08-27T09:02:30.060 ,7,0,0.,12.0,0.,12.0,0.,12.0,0.,12.0
1989-08-27T09:02:42.060 ,7,0,0.,12.0,0.,12.0,0.,12.0,0.,12.0
1989-08-27T09:02:54.060 ,7,0,0.,12.0,0.,12.0,0.,12.0,0.,12.0
1989-08-27T09:03:06.060 ,7,0,0.,12.0,0.,12.0,0.,12.0,0.,12.0
1989-08-27T09:03:18.060 ,7,0,0.,12.0,0.,12.0,0.,12.0,0.,12.0
1989-08-27T09:03:30.060 ,7,0,0.,12.0,0.,12.0,0.,12.0,0.,12.0
1989-08-27T09:03:42.060 ,7,0,0.,12.0,0.,12.0,0.,12.0,0.,12.0
1989-08-27T09:03:54.060 ,7,0,0.,12.0,0.,12.0,0.,12.0,0.,12.0
1989-08-27T09:04:06.060 ,6,0,0.,12.0,0.,12.0,0.,12.0,0.,12.0
1989-08-27T09:04:18.060 ,6,0,0.,12.0,0.,12.0,0.,12.0,0.,12.0
1989-08-27T09:04:30.060 ,6,0,0.,12.0,0.,12.0,0.,12.0,0.,12.0
1989-08-27T09:04:42.060 ,6,0,0.,12.0,0.,12.0,0.,12.0,0.,12.0
1989-08-27T09:04:54.060 ,5,0,0.,12.0,0.,12.0,0.,12.0,0.,12.0
1989-08-27T09:05:06.060 ,5,0,0.,12.0,0.,12.0,0.,12.0,0.,12.0
1989-08-27T09:05:18.060 ,5,0,0.,12.0,0.,12.0,0.,12.0,0.,12.0
1989-08-27T09:05:30.060 ,5,0,0.,12.0,0.,12.0,0.,12.0,0.,12.0
1989-08-27T09:05:42.060 ,4,0,0.,12.0,0.,12.0,0.,12.0,0.,12.0
1989-08-27T09:05:54.060 ,4,0,0.,12.0,0.,12.0,0.,12.0,0.,12.0
1989-08-27T09:06:06.060 ,4,0,0.,12.0,0.,12.0,0.,12.0,0.,12.0
1989-08-27T09:06:18.060 ,4,0,0.,12.0,0.,12.0,0.,12.0,0.,12.0
1989-08-27T09:06:30.060 ,3,0,0.,12.0,0.,12.0,0.,12.0,0.,12.0
1989-08-27T09:06:42.060 ,3,0,0.,12.0,0.,12.0,0.,12.0,0.,12.0
1989-08-27T09:06:54.060 ,3,0,0.,12.0,0.,12.0,0.,12.0,0.,12.0
1989-08-27T09:07:06.060 ,3,0,0.,12.0,0.,12.0,0.,12.0,0.,12.0
1989-08-27T09:07:18.060 ,2,0,0.,12.0,0.,12.0,0.,12.0,0.,12.0
1989-08-27T09:07:30.060 ,2,0,0.,12.0,0.,12.0,0.,12.0,0.,12.0
1989-08-27T09:07:42.060 ,2,0,0.,12.0,0.,12.0,0.,12.0,0.,12.0
1989-08-27T09:07:54.060 ,2,0,0.,12.0,0.,12.0,0.,12.0,0.,12.0
1989-08-27T09:08:06.060 ,1,0,0.,12.0,0.,12.0,0.,12.0,0.,12.0
1989-08-27T09:08:18.060 ,1,0,0.,12.0,0.,12.0,0.,12.0,0.,12.0
1989-08-27T09:08:30.060 ,1,0,0.,12.0,0.,12.0,0.,12.0,0.,12.0
1989-08-27T09:08:42.060 ,1,0,0.,12.0,0.,12.0,0.,12.0,0.,12.0
1989-08-27T09:08:54.060 ,0,0,0.,12.0,0.,12.0,0.,12.0,0.,12.0
1989-08-27T09:09:06.060 ,0,0,0.,12.0,0.,12.0,0.,12.0,0.,12.0
1989-08-27T09:09:18.060 ,0,0,0.,12.0,0.,12.0,0.,12.0,0.,12.0
1989-08-27T09:09:30.060 ,0,0,0.,12.0,0.,12.0,0.,12.0,0.,12.0
1989-08-27T09:09:42.060 ,0,0,0.,12.0,0.,12.0,0.,12.0,0.,12.0
1989-08-27T09:09:54.060 ,0,0,0.,12.0,0.,12.0,0.,12.0,0.,12.0
1989-08-27T09:10:06.060 ,0,0,0.,12.0,0.,12.0,0.,12.0,0.,12.0
1989-08-27T09:10:18.060 ,0,0,0.,12.0,0.,12.0,0.,12.0,0.,12.0
1989-08-27T09:10:30.060 ,1,0,0.,12.0,0.,12.0,0.,12.0,0.,12.0
1989-08-27T09:10:42.060 ,1,0,0.,12.0,0.,12.0,0.,12.0,0.,12.0
1989-08-27T09:10:54.060 ,1,0,0.,12.0,0.,12.0,0.,12.0,0.,12.0
1989-08-27T09:11:06.060 ,1,0,0.,12.0,0.,12.0,0.,12.0,0.,12.0
1989-08-27T09:11:18.060 ,2,0,0.,12.0,0.,12.0,0.,12.0,0.,12.0
1989-08-27T09:11:30.060 ,2,0,0.,12.0,0.,12.0,0.,12.0,0.,12.0
1989-08-27T09:11:42.060 ,2,0,0.,12.0,0.,12.0,0.,12.0,0.,12.0
1989-08-27T09:11:54.060 ,2,0,0.,12.0,0.,12.0,0.,12.0,0.,12.0
1989-08-27T09:12:06.060 ,3,0,0.,12.0,0.,12.0,0.,12.0,0.,12.0
1989-08-27T09:12:18.060 ,3,0,0.,12.0,0.,12.0,0.,12.0,0.,12.0
1989-08-27T09:12:30.060 ,3,0,0.,12.0,0.,12.0,0.,12.0,0.,12.0
1989-08-27T09:12:42.060 ,3,0,0.,12.0,0.,12.0,0.,12.0,0.,12.0
1989-08-27T09:12:54.060 ,4,0,0.,12.0,0.,12.0,0.,12.0,0.,12.0
1989-08-27T09:13:06.060 ,4,0,0.,12.0,0.,12.0,0.,12.0,0.,12.0
1989-08-27T09:13:18.060 ,4,0,0.,12.0,0.,12.0,0.,12.0,0.,12.0
1989-08-27T09:13:30.060 ,4,0,0.,12.0,0.,12.0,0.,12.0,0.,12.0
1989-08-27T09:13:42.060 ,5,0,0.,12.0,0.,12.0,0.,12.0,0.,12.0
1989-08-27T09:13:54.060 ,5,0,0.,12.0,0.,12.0,0.,12.0,0.,12.0
1989-08-27T09:14:06.060 ,5,0,0.,12.0,0.,12.0,0.,12.0,0.,12.0
1989-08-27T09:14:18.060 ,5,0,0.,12.0,0.,12.0,0.,12.0,0.,12.0
1989-08-27T09:14:30.060 ,6,0,0.,12.0,0.,12.0,0.,12.0,0.,12.0
1989-08-27T09:14:42.060 ,6,0,0.,12.0,0.,12.0,0.,12.0,0.,12.0
1989-08-27T09:14:54.060 ,6,0,0.,12.0,0.,12.0,0.,12.0,0.,12.0
1989-08-27T09:15:06.060 ,6,0,0.,12.0,0.,12.0,0.,12.0,0.,12.0
1989-08-27T09:15:18.060 ,7,0,0.,12.0,0.,12.0,0.,12.0,0.,12.0
1989-08-27T09:15:30.060 ,7,0,0.,12.0,0.,12.0,0.,12.0,0.,12.0
1989-08-27T09:15:42.060 ,7,0,0.,12.0,0.,12.0,0.,12.0,0.,12.0
1989-08-27T09:15:54.060 ,7,0,0.,12.0,0.,12.0,0.,12.0,0.,12.0
1989-08-27T09:16:06.060 ,7,0,0.,12.0,0.,12.0,0.,12.0,0.,12.0
1989-08-27T09:16:18.060 ,7,0,0.,12.0,0.,12.0,0.,12.0,0.,12.0
1989-08-27T09:16:30.060 ,7,0,0.,12.0,0.,12.0,0.,12.0,0.,12.0
1989-08-27T09:16:42.060 ,7,0,0.,12.0,0.,12.0,0.,12.0,0.,12.0
1989-08-27T09:16:54.060 ,6,0,0.,12.0,0.,12.0,0.,12.0,0.,12.0
1989-08-27T09:17:06.060 ,6,0,0.,12.0,0.,12.0,0.,12.0,0.,12.0
1989-08-27T09:17:18.060 ,6,0,0.,12.0,0.,12.0,0.,12.0,0.,12.0
1989-08-27T09:17:30.060 ,6,0,0.,12.0,0.,12.0,0.,12.0,0.,12.0
1989-08-27T09:17:42.060 ,5,0,0.,12.0,0.,12.0,0.,12.0,0.,12.0
1989-08-27T09:17:54.060 ,5,0,0.,12.0,0.,12.0,0.,12.0,0.,12.0
1989-08-27T09:18:06.060 ,5,0,0.,12.0,0.,12.0,0.,12.0,0.,12.0
1989-08-27T09:18:18.060 ,5,0,0.,12.0,0.,12.0,0.,12.0,0.,12.0
1989-08-27T09:18:30.060 ,4,0,0.,12.0,0.,12.0,0.,12.0,0.,12.0
1989-08-27T09:18:42.060 ,4,0,0.,12.0,0.,12.0,0.,12.0,0.,12.0
1989-08-27T09:18:54.060 ,4,0,0.,12.0,0.,12.0,0.,12.0,0.,12.0
1989-08-27T09:19:06.060 ,4,0,0.,12.0,0.,12.0,0.,12.0,0.,12.0
1989-08-27T09:19:18.060 ,3,0,0.,12.0,0.,12.0,0.,12.0,0.,12.0
1989-08-27T09:19:30.060 ,3,0,0.,12.0,0.,12.0,0.,12.0,0.,12.0
1989-08-27T09:19:42.060 ,3,0,0.,12.0,0.,12.0,0.,12.0,0.,12.0
1989-08-27T09:19:54.060 ,3,0,0.,12.0,0.,12.0,0.,12.0,0.,12.0
1989-08-27T09:20:06.060 ,2,0,0.,12.0,0.,12.0,0.,12.0,0.,12.0
1989-08-27T09:20:18.060 ,2,0,0.,12.0,0.,12.0,0.,12.0,0.,12.0
1989-08-27T09:20:30.060 ,2,0,0.,12.0,0.,12.0,0.,12.0,0.,12.0
1989-08-27T09:20:42.060 ,2,0,0.,12.0,0.,12.0,0.,12.0,0.,12.0
1989-08-27T09:20:54.060 ,1,0,0.,12.0,0.,12.0,0.,12.0,0.,12.0
1989-08-27T09:21:06.060 ,1,0,0.,12.0,0.,12.0,0.,12.0,0.,12.0
1989-08-27T09:21:18.060 ,1,0,0.,12.0,0.,12.0,0.,12.0,0.,12.0
1989-08-27T09:21:30.060 ,1,0,0.,12.0,0.,12.0,0.,12.0,0.,12.0
1989-08-27T09:21:42.060 ,0,0,0.,12.0,0.,12.0,0.,12.0,0.,12.0
1989-08-27T09:21:54.060 ,0,0,0.,12.0,0.,12.0,0.,12.0,0.,12.0
1989-08-27T09:22:06.060 ,0,0,0.,12.0,0.,12.0,0.,12.0,0.,12.0
1989-08-27T09:22:18.060 ,0,0,0.,12.0,0.,12.0,0.,12.0,0.,12.0
1989-08-27T09:22:30.060 ,0,0,0.,12.0,0.,12.0,0.,12.0,0.,12.0
1989-08-27T09:22:42.060 ,0,0,0.,12.0,0.,12.0,0.,12.0,0.,12.0
1989-08-27T09:22:54.060 ,0,0,0.,12.0,0.,12.0,0.,12.0,0.,12.0
1989-08-27T09:23:06.060 ,0,0,0.,12.0,0.,12.0,0.,12.0,0.,12.0
1989-08-27T09:23:18.060 ,1,0,0.,12.0,0.,12.0,0.,12.0,0.,12.0
1989-08-27T09:23:30.060 ,1,0,0.,12.0,0.,12.0,0.,12.0,0.,12.0
1989-08-27T09:23:42.060 ,1,0,0.,12.0,0.,12.0,0.,12.0,0.,12.0
1989-08-27T09:23:54.060 ,1,0,0.,12.0,0.,12.0,0.,12.0,0.,12.0
1989-08-27T09:24:06.060 ,2,0,0.,12.0,0.,12.0,0.,12.0,0.,12.0
1989-08-27T09:24:18.060 ,2,0,0.,12.0,0.,12.0,0.,12.0,0.,12.0
1989-08-27T09:24:30.060 ,2,0,0.,12.0,0.,12.0,0.,12.0,0.,12.0
1989-08-27T09:24:42.060 ,2,0,0.,12.0,0.,12.0,0.,12.0,0.,12.0
1989-08-27T09:24:54.060 ,3,0,0.,12.0,0.,12.0,0.,12.0,0.,12.0
1989-08-27T09:25:06.060 ,3,0,0.,12.0,0.,12.0,0.,12.0,0.,12.0
1989-08-27T09:25:18.060 ,3,0,0.,12.0,0.,12.0,0.,12.0,0.,12.0
1989-08-27T09:25:30.060 ,3,0,0.,12.0,0.,12.0,0.,12.0,0.,12.0
1989-08-27T09:25:42.060 ,4,0,0.,12.0,0.,12.0,0.,12.0,0.,12.0
1989-08-27T09:25:54.060 ,4,0,0.,12.0,0.,12.0,0.,12.0,0.,12.0
1989-08-27T09:26:06.060 ,4,0,0.,12.0,0.,12.0,0.,12.0,0.,12.0
1989-08-27T09:26:18.060 ,4,0,0.,12.0,0.,12.0,0.,12.0,0.,12.0
1989-08-27T09:26:30.060 ,5,0,0.,12.0,0.,12.0,0.,12.0,0.,12.0
1989-08-27T09:26:42.060 ,5,0,0.,12.0,0.,12.0,0.,12.0,0.,12.0
1989-08-27T09:26:54.060 ,5,0,0.,12.0,0.,12.0,0.,12.0,0.,12.0
1989-08-27T09:27:06.060 ,5,0,0.,12.0,0.,12.0,0.,12.0,0.,12.0
1989-08-27T09:27:18.060 ,6,0,0.,12.0,0.,12.0,0.,12.0,0.,12.0
1989-08-27T09:27:30.060 ,6,0,0.,12.0,0.,12.0,0.,12.0,0.,12.0
1989-08-27T09:27:42.060 ,6,0,0.,12.0,0.,12.0,0.,12.0,0.,12.0
1989-08-27T09:27:54.060 ,6,0,0.,12.0,0.,12.0,0.,12.0,0.,12.0
1989-08-27T09:28:06.060 ,7,0,0.,12.0,0.,12.0,0.,12.0,0.,12.0
1989-08-27T09:28:18.060 ,7,0,0.,12.0,0.,12.0,0.,12.0,0.,12.0
1989-08-27T09:28:30.060 ,7,0,0.,12.0,0.,12.0,0.,12.0,0.,12.0
1989-08-27T09:28:42.060 ,7,0,0.,12.0,0.,12.0,0.,12.0,0.,12.0
1989-08-27T09:28:54.060 ,7,0,0.,12.0,0.,12.0,0.,12.0,0.,12.0
1989-08-27T09:29:06.060 ,7,0,0.,12.0,0.,12.0,0.,12.0,0.,12.0
1989-08-27T09:29:18.060 ,7,0,0.,12.0,0.,12.0,0.,12.0,0.,12.0
1989-08-27T09:29:30.060 ,7,0,0.,12.0,0.,12.0,0.,12.0,0.,12.0
1989-08-27T09:29:42.060 ,6,0,0.,12.0,0.,12.0,0.,12.0,0.,12.0
1989-08-27T09:29:54.060 ,6,0,0.,12.0,0.,12.0,0.,12.0,0.,12.0
1989-08-27T09:30:06.060 ,6,0,0.,12.0,0.,12.0,0.,12.0,0.,12.0
1989-08-27T09:30:18.060 ,6,0,0.,12.0,0.,12.0,0.,12.0,0.,12.0
1989-08-27T09:30:30.060 ,5,0,0.,12.0,0.,12.0,0.,12.0,0.,12.0
1989-08-27T09:30:42.060 ,5,0,0.,12.0,0.,12.0,0.,12.0,0.,12.0
1989-08-27T09:30:54.060 ,5,0,0.,12.0,0.,12.0,0.,12.0,0.,12.0
1989-08-27T09:31:06.060 ,5,0,0.,12.0,0.,12.0,0.,12.0,0.,12.0
1989-08-27T09:31:18.060 ,4,0,0.,12.0,0.,12.0,0.,12.0,0.,12.0
1989-08-27T09:31:30.060 ,4,0,0.,12.0,0.,12.0,0.,12.0,0.,12.0
1989-08-27T09:31:42.060 ,4,0,0.,12.0,0.,12.0,0.,12.0,0.,12.0
1989-08-27T09:31:54.060 ,4,0,0.,12.0,0.,12.0,0.,12.0,0.,12.0
1989-08-27T09:32:06.060 ,3,0,0.,12.0,0.,12.0,0.,12.0,0.,12.0
1989-08-27T09:32:18.060 ,3,0,0.,12.0,0.,12.0,0.,12.0,0.,12.0
1989-08-27T09:32:30.060 ,3,0,0.,12.0,0.,12.0,0.,12.0,0.,12.0
1989-08-27T09:32:42.060 ,3,0,0.,12.0,0.,12.0,0.,12.0,0.,12.0
1989-08-27T09:32:54.060 ,2,0,0.,12.0,0.,12.0,0.,12.0,0.,12.0
1989-08-27T09:33:06.060 ,2,0,0.,12.0,0.,12.0,0.,12.0,0.,12.0
1989-08-27T09:33:18.060 ,2,0,0.,12.0,0.,12.0,0.,12.0,0.,12.0
1989-08-27T09:33:30.060 ,2,0,0.,12.0,0.,12.0,0.,12.0,0.,12.0
1989-08-27T09:33:42.060 ,1,0,0.,12.0,0.,12.0,0.,12.0,0.,12.0
1989-08-27T09:33:54.060 ,1,0,0.,12.0,0.,12.0,0.,12.0,0.,12.0
1989-08-27T09:34:06.060 ,1,0,0.,12.0,0.,12.0,0.,12.0,0.,12.0
1989-08-27T09:34:18.060 ,1,0,0.,12.0,0.,12.0,0.,12.0,0.,12.0
1989-08-27T09:34:30.060 ,0,0,0.,12.0,0.,12.0,0.,12.0,0.,12.0
1989-08-27T09:34:42.060 ,0,0,0.,12.0,0.,12.0,0.,12.0,0.,12.0
1989-08-27T09:34:54.060 ,0,0,0.,12.0,0.,12.0,0.,12.0,0.,12.0
1989-08-27T09:35:06.060 ,0,0,0.,12.0,0.,12.0,0.,12.0,0.,12.0
1989-08-27T09:35:18.060 ,0,0,0.,12.0,0.,12.0,0.,12.0,0.,12.0
1989-08-27T09:35:30.060 ,0,0,0.,12.0,0.,12.0,0.,12.0,0.,12.0
1989-08-27T09:35:42.060 ,0,0,0.,12.0,0.,12.0,0.,12.0,0.,12.0
1989-08-27T09:35:54.060 ,0,0,0.,12.0,0.,12.0,0.,12.0,0.,12.0
1989-08-27T09:36:06.060 ,1,0,0.,12.0,0.,12.0,0.,12.0,0.,12.0
1989-08-27T09:36:18.060 ,1,0,0.,12.0,0.,12.0,0.,12.0,0.,12.0
1989-08-27T09:36:30.060 ,1,0,0.,12.0,0.,12.0,0.,12.0,0.,12.0
1989-08-27T09:36:42.060 ,1,0,0.,12.0,0.,12.0,0.,12.0,0.,12.0
1989-08-27T09:36:54.060 ,2,0,0.,12.0,0.,12.0,0.,12.0,0.,12.0
1989-08-27T09:37:06.060 ,2,0,0.,12.0,0.,12.0,0.,12.0,0.,12.0
1989-08-27T09:37:18.060 ,2,0,0.,12.0,0.,12.0,0.,12.0,0.,12.0
1989-08-27T09:37:30.060 ,2,0,0.,12.0,0.,12.0,0.,12.0,0.,12.0
1989-08-27T09:37:42.060 ,3,0,0.,12.0,0.,12.0,0.,12.0,0.,12.0
1989-08-27T09:37:54.060 ,3,0,0.,12.0,0.,12.0,0.,12.0,0.,12.0
1989-08-27T09:38:06.060 ,3,0,0.,12.0,0.,12.0,0.,12.0,0.,12.0
1989-08-27T09:38:18.060 ,3,0,0.,12.0,0.,12.0,0.,12.0,0.,12.0
1989-08-27T09:38:30.060 ,4,0,0.,12.0,0.,12.0,0.,12.0,0.,12.0
1989-08-27T09:38:42.060 ,4,0,0.,12.0,0.,12.0,0.,12.0,0.,12.0
1989-08-27T09:38:54.060 ,4,0,0.,12.0,0.,12.0,0.,12.0,0.,12.0
1989-08-27T09:39:06.060 ,4,0,0.,12.0,0.,12.0,0.,12.0,0.,12.0
1989-08-27T09:39:18.060 ,5,0,0.,12.0,0.,12.0,0.,12.0,0.,12.0
1989-08-27T09:39:30.060 ,5,0,0.,12.0,0.,12.0,0.,12.0,0.,12.0
1989-08-27T09:39:42.060 ,5,0,0.,12.0,0.,12.0,0.,12.0,0.,12.0
1989-08-27T09:39:54.060 ,5,0,0.,12.0,0.,12.0,0.,12.0,0.,12.0
1989-08-27T09:40:06.060 ,6,0,0.,12.0,0.,12.0,0.,12.0,0.,12.0
1989-08-27T09:40:18.060 ,6,0,0.,12.0,0.,12.0,0.,12.0,0.,12.0
1989-08-27T09:40:30.060 ,6,0,0.,12.0,0.,12.0,0.,12.0,0.,12.0
1989-08-27T09:40:42.060 ,6,0,0.,12.0,0.,12.0,0.,12.0,0.,12.0
1989-08-27T09:40:54.060 ,7,0,0.,12.0,0.,12.0,0.,12.0,0.,12.0
1989-08-27T09:41:06.060 ,7,0,0.,12.0,0.,12.0,0.,12.0,0.,12.0
1989-08-27T09:41:18.060 ,7,0,0.,12.0,0.,12.0,0.,12.0,0.,12.0
1989-08-27T09:41:30.060 ,7,0,0.,12.0,0.,12.0,0.,12.0,0.,12.0
1989-08-27T09:41:42.060 ,7,0,0.,12.0,0.,12.0,0.,12.0,0.,12.0
1989-08-27T09:41:54.060 ,7,0,0.,12.0,0.,12.0,0.,12.0,0.,12.0
1989-08-27T09:42:06.060 ,7,0,0.,12.0,0.,12.0,0.,12.0,0.,12.0
1989-08-27T09:42:18.060 ,7,0,0.,12.0,0.,12.0,0.,12.0,0.,12.0
1989-08-27T09:42:30.060 ,6,0,0.,12.0,0.,12.0,0.,12.0,0.,12.0
1989-08-27T09:42:42.060 ,6,0,0.,12.0,0.,12.0,0.,12.0,0.,12.0
1989-08-27T09:42:54.060 ,6,0,0.,12.0,0.,12.0,0.,12.0,0.,12.0
1989-08-27T09:43:06.060 ,6,0,0.,12.0,0.,12.0,0.,12.0,0.,12.0
1989-08-27T09:43:18.060 ,5,0,0.,12.0,0.,12.0,0.,12.0,0.,12.0
1989-08-27T09:43:30.060 ,5,0,0.,12.0,0.,12.0,0.,12.0,0.,12.0
1989-08-27T09:43:42.060 ,5,0,0.,12.0,0.,12.0,0.,12.0,0.,12.0
1989-08-27T09:43:54.060 ,5,0,0.,12.0,0.,12.0,0.,12.0,0.,12.0
1989-08-27T09:44:06.060 ,4,0,0.,12.0,0.,12.0,0.,12.0,0.,12.0
1989-08-27T09:44:18.060 ,4,0,0.,12.0,0.,12.0,0.,12.0,0.,12.0
1989-08-27T09:44:30.060 ,4,0,0.,12.0,0.,12.0,0.,12.0,0.,12.0
1989-08-27T09:44:42.060 ,4,0,0.,12.0,0.,12.0,0.,12.0,0.,12.0
1989-08-27T09:44:54.060 ,3,0,0.,12.0,0.,12.0,0.,12.0,0.,12.0
1989-08-27T09:45:06.060 ,3,0,0.,12.0,0.,12.0,0.,12.0,0.,12.0
1989-08-27T09:45:18.060 ,3,0,0.,12.0,0.,12.0,0.,12.0,0.,12.0
1989-08-27T09:45:30.060 ,3,0,0.,12.0,0.,12.0,0.,12.0,0.,12.0
1989-08-27T09:45:42.060 ,2,0,0.,12.0,0.,12.0,0.,12.0,0.,12.0
1989-08-27T09:45:54.060 ,2,0,0.,12.0,0.,12.0,0.,12.0,0.,12.0
1989-08-27T09:46:06.060 ,2,0,0.,12.0,0.,12.0,0.,12.0,0.,12.0
1989-08-27T09:46:18.060 ,2,0,0.,12.0,0.,12.0,0.,12.0,0.,12.0
1989-08-27T09:46:30.060 ,1,0,0.,12.0,0.,12.0,0.,12.0,0.,12.0
1989-08-27T09:46:42.060 ,1,0,0.,12.0,0.,12.0,0.,12.0,0.,12.0
1989-08-27T09:46:54.060 ,1,0,0.,12.0,0.,12.0,0.,12.0,0.,12.0
1989-08-27T09:47:06.060 ,1,0,0.,12.0,0.,12.0,0.,12.0,0.,12.0
1989-08-27T09:47:18.060 ,0,0,0.,12.0,0.,12.0,0.,12.0,0.,12.0
1989-08-27T09:47:30.060 ,0,0,0.,12.0,0.,12.0,0.,12.0,0.,12.0
1989-08-27T09:47:42.060 ,0,0,0.,12.0,0.,12.0,0.,12.0,0.,12.0
1989-08-27T09:47:54.060 ,0,0,0.,12.0,0.,12.0,0.,12.0,0.,12.0
1989-08-27T09:48:06.060 ,0,0,0.,12.0,0.,12.0,0.,12.0,0.,12.0
1989-08-27T09:48:18.060 ,0,0,0.,12.0,0.,12.0,0.,12.0,0.,12.0
1989-08-27T09:48:30.060 ,0,0,0.,12.0,0.,12.0,0.,12.0,0.,12.0
1989-08-27T09:48:42.060 ,0,0,0.,12.0,0.,12.0,0.,12.0,0.,12.0
1989-08-27T09:48:54.060 ,1,0,0.,12.0,0.,12.0,0.,12.0,0.,12.0
1989-08-27T09:49:06.060 ,1,0,0.,12.0,0.,12.0,0.,12.0,0.,12.0
1989-08-27T09:49:18.060 ,1,0,0.,12.0,0.,12.0,0.,12.0,0.,12.0
1989-08-27T09:49:30.060 ,1,0,0.,12.0,0.,12.0,0.,12.0,0.,12.0
1989-08-27T09:49:42.060 ,2,0,0.,12.0,0.,12.0,0.,12.0,0.,12.0
1989-08-27T09:49:54.060 ,2,0,0.,12.0,0.,12.0,0.,12.0,0.,12.0
1989-08-27T09:50:06.060 ,2,0,0.,12.0,0.,12.0,0.,12.0,0.,12.0
1989-08-27T09:50:18.060 ,2,0,0.,12.0,0.,12.0,0.,12.0,0.,12.0
1989-08-27T09:50:30.060 ,3,0,0.,12.0,0.,12.0,0.,12.0,0.,12.0
1989-08-27T09:50:42.060 ,3,0,0.,12.0,0.,12.0,0.,12.0,0.,12.0
1989-08-27T09:50:54.060 ,3,0,0.,12.0,0.,12.0,0.,12.0,0.,12.0
1989-08-27T09:51:06.060 ,3,0,0.,12.0,0.,12.0,0.,12.0,0.,12.0
1989-08-27T09:51:18.060 ,4,0,0.,12.0,0.,12.0,0.,12.0,0.,12.0
1989-08-27T09:51:30.060 ,4,0,0.,12.0,0.,12.0,0.,12.0,0.,12.0
1989-08-27T09:51:42.060 ,4,0,0.,12.0,0.,12.0,0.,12.0,0.,12.0
1989-08-27T09:51:54.060 ,4,0,0.,12.0,0.,12.0,0.,12.0,0.,12.0
1989-08-27T09:52:06.060 ,5,0,0.,12.0,0.,12.0,0.,12.0,0.,12.0
1989-08-27T09:52:18.060 ,5,0,0.,12.0,0.,12.0,0.,12.0,0.,12.0
1989-08-27T09:52:30.060 ,5,0,0.,12.0,0.,12.0,0.,12.0,0.,12.0
1989-08-27T09:52:42.060 ,5,0,0.,12.0,0.,12.0,0.,12.0,0.,12.0
1989-08-27T09:52:54.060 ,6,0,0.,12.0,0.,12.0,0.,12.0,0.,12.0
1989-08-27T09:53:06.060 ,6,0,0.,12.0,0.,12.0,0.,12.0,0.,12.0
1989-08-27T09:53:18.060 ,6,0,0.,12.0,0.,12.0,0.,12.0,0.,12.0
1989-08-27T09:53:30.060 ,6,0,0.,12.0,0.,12.0,0.,12.0,0.,12.0
1989-08-27T09:53:42.060 ,7,0,0.,12.0,0.,12.0,0.,12.0,0.,12.0
1989-08-27T09:53:54.060 ,7,0,0.,12.0,0.,12.0,0.,12.0,0.,12.0
1989-08-27T09:54:06.060 ,7,0,0.,12.0,0.,12.0,0.,12.0,0.,12.0
1989-08-27T09:54:18.060 ,7,0,0.,12.0,0.,12.0,0.,12.0,0.,12.0
1989-08-27T09:54:30.060 ,7,0,0.,12.0,0.,12.0,0.,12.0,0.,12.0
1989-08-27T09:54:42.060 ,7,0,0.,12.0,0.,12.0,0.,12.0,0.,12.0
1989-08-27T09:54:54.060 ,7,0,0.,12.0,0.,12.0,0.,12.0,0.,12.0
1989-08-27T09:55:06.060 ,7,0,0.,12.0,0.,12.0,0.,12.0,0.,12.0
1989-08-27T09:55:18.060 ,6,0,0.,12.0,0.,12.0,0.,12.0,0.,12.0
1989-08-27T09:55:30.060 ,6,0,0.,12.0,0.,12.0,0.,12.0,0.,12.0
1989-08-27T09:55:42.060 ,6,0,0.,12.0,0.,12.0,0.,12.0,0.,12.0
1989-08-27T09:55:54.060 ,6,0,0.,12.0,0.,12.0,0.,12.0,0.,12.0
1989-08-27T09:56:06.060 ,5,0,0.,12.0,0.,12.0,0.,12.0,0.,12.0
1989-08-27T09:56:18.060 ,5,0,0.,12.0,0.,12.0,0.,12.0,0.,12.0
1989-08-27T09:56:30.060 ,5,0,0.,12.0,0.,12.0,0.,12.0,0.,12.0
1989-08-27T09:56:42.060 ,5,0,0.,12.0,0.,12.0,0.,12.0,0.,12.0
1989-08-27T09:56:54.060 ,4,0,0.,12.0,0.,12.0,0.,12.0,0.,12.0
1989-08-27T09:57:06.060 ,4,0,0.,12.0,0.,12.0,0.,12.0,0.,12.0
1989-08-27T09:57:18.060 ,4,0,0.,12.0,0.,12.0,0.,12.0,0.,12.0
1989-08-27T09:57:30.060 ,4,0,0.,12.0,0.,12.0,0.,12.0,0.,12.0
1989-08-27T09:57:42.060 ,3,0,0.,12.0,0.,12.0,0.,12.0,0.,12.0
1989-08-27T09:57:54.060 ,3,0,0.,12.0,0.,12.0,0.,12.0,0.,12.0
1989-08-27T09:58:06.060 ,0,0,0.,12.0,0.,12.0,0.,12.0,0.,12.0
1989-08-27T09:58:18.060 ,0,0,0.,12.0,0.,12.0,0.,12.0,0.,12.0
1989-08-27T10:00:55.260 ,0,0,0.,12.0,0.,12.0,0.,12.0,0.,12.0
1989-08-27T10:01:07.260 ,0,0,0.,12.0,0.,12.0,0.,12.0,0.,12.0
1989-08-27T10:01:18.060 ,0,0,0.,12.0,0.,12.0,0.,12.0,0.,12.0
1989-08-27T10:01:30.060 ,0,0,0.,12.0,0.,12.0,0.,12.0,0.,12.0
1989-08-27T10:01:42.060 ,1,0,0.,12.0,0.,12.0,0.,12.0,0.,12.0
1989-08-27T10:01:54.060 ,1,0,0.,12.0,0.,12.0,0.,12.0,0.,12.0
1989-08-27T10:02:06.060 ,1,0,0.,12.0,0.,12.0,0.,12.0,0.,12.0
1989-08-27T10:02:18.060 ,1,0,0.,12.0,0.,12.0,0.,12.0,0.,12.0
1989-08-27T10:02:30.060 ,2,0,0.,12.0,0.,12.0,0.,12.0,0.,12.0
1989-08-27T10:02:42.060 ,2,0,0.,12.0,0.,12.0,0.,12.0,0.,12.0
1989-08-27T10:02:54.060 ,2,0,0.,12.0,0.,12.0,0.,12.0,0.,12.0
1989-08-27T10:03:06.060 ,2,0,0.,12.0,0.,12.0,0.,12.0,0.,12.0
1989-08-27T10:03:18.060 ,3,0,0.,12.0,0.,12.0,0.,12.0,0.,12.0
1989-08-27T10:03:30.060 ,3,0,0.,12.0,0.,12.0,0.,12.0,0.,12.0
1989-08-27T10:03:42.060 ,3,0,0.,12.0,0.,12.0,0.,12.0,0.,12.0
1989-08-27T10:03:54.060 ,3,0,0.,12.0,0.,12.0,0.,12.0,0.,12.0
1989-08-27T10:04:06.060 ,4,0,0.,12.0,0.,12.0,0.,12.0,0.,12.0
1989-08-27T10:04:18.060 ,4,0,0.,12.0,0.,12.0,0.,12.0,0.,12.0
1989-08-27T10:04:30.060 ,4,0,0.,12.0,0.,12.0,0.,12.0,0.,12.0
1989-08-27T10:04:42.060 ,4,0,0.,12.0,0.,12.0,0.,12.0,0.,12.0
1989-08-27T10:04:54.060 ,5,0,0.,12.0,0.,12.0,0.,12.0,0.,12.0
1989-08-27T10:05:06.060 ,5,0,0.,12.0,0.,12.0,0.,12.0,0.,12.0
1989-08-27T10:05:18.060 ,5,0,0.,12.0,0.,12.0,0.,12.0,0.,12.0
1989-08-27T10:05:30.060 ,5,0,0.,12.0,0.,12.0,0.,12.0,0.,12.0
1989-08-27T10:05:42.060 ,6,0,0.,12.0,0.,12.0,0.,12.0,0.,12.0
1989-08-27T10:05:54.060 ,6,0,0.,12.0,0.,12.0,0.,12.0,0.,12.0
1989-08-27T10:06:06.060 ,6,0,0.,12.0,0.,12.0,0.,12.0,0.,12.0
1989-08-27T10:06:18.060 ,6,0,0.,12.0,0.,12.0,0.,12.0,0.,12.0
1989-08-27T10:06:30.060 ,7,0,0.,12.0,0.,12.0,0.,12.0,0.,12.0
1989-08-27T10:06:42.060 ,7,0,0.,12.0,0.,12.0,0.,12.0,0.,12.0
1989-08-27T10:06:54.060 ,7,0,0.,12.0,0.,12.0,0.,12.0,0.,12.0
1989-08-27T10:07:06.060 ,7,0,0.,12.0,0.,12.0,0.,12.0,0.,12.0
1989-08-27T10:07:18.060 ,7,0,0.,12.0,0.,12.0,0.,12.0,0.,12.0
1989-08-27T10:07:30.060 ,7,0,0.,12.0,0.,12.0,0.,12.0,0.,12.0
1989-08-27T10:07:42.060 ,7,0,0.,12.0,0.,12.0,0.,12.0,0.,12.0
1989-08-27T10:07:54.060 ,7,0,0.,12.0,0.,12.0,0.,12.0,0.,12.0
1989-08-27T10:08:06.060 ,6,0,0.,12.0,0.,12.0,0.,12.0,0.,12.0
1989-08-27T10:08:18.060 ,6,0,0.,12.0,0.,12.0,0.,12.0,0.,12.0
1989-08-27T10:08:30.060 ,6,0,0.,12.0,0.,12.0,0.,12.0,0.,12.0
1989-08-27T10:08:42.060 ,6,0,0.,12.0,0.,12.0,0.,12.0,0.,12.0
1989-08-27T10:08:54.060 ,5,0,0.,12.0,0.,12.0,0.,12.0,0.,12.0
1989-08-27T10:09:06.060 ,5,0,0.,12.0,0.,12.0,0.,12.0,0.,12.0
1989-08-27T10:09:18.060 ,5,0,0.,12.0,0.,12.0,0.,12.0,0.,12.0
1989-08-27T10:09:30.060 ,5,0,0.,12.0,0.,12.0,0.,12.0,0.,12.0
1989-08-27T10:09:42.060 ,4,0,0.,12.0,0.,12.0,0.,12.0,0.,12.0
1989-08-27T10:09:54.060 ,4,0,0.,12.0,0.,12.0,0.,12.0,0.,12.0
1989-08-27T10:10:06.060 ,4,0,0.,12.0,0.,12.0,0.,12.0,0.,12.0
1989-08-27T10:10:18.060 ,4,0,0.,12.0,0.,12.0,0.,12.0,0.,12.0
1989-08-27T10:10:30.060 ,3,0,0.,12.0,0.,12.0,0.,12.0,0.,12.0
1989-08-27T10:10:42.060 ,3,0,0.,12.0,0.,12.0,0.,12.0,0.,12.0
1989-08-27T10:10:54.060 ,3,0,0.,12.0,0.,12.0,0.,12.0,0.,12.0
1989-08-27T10:11:06.060 ,3,0,0.,12.0,0.,12.0,0.,12.0,0.,12.0
1989-08-27T10:11:18.060 ,2,0,0.,12.0,0.,12.0,0.,12.0,0.,12.0
1989-08-27T10:11:30.060 ,2,0,0.,12.0,0.,12.0,0.,12.0,0.,12.0
1989-08-27T10:11:42.060 ,2,0,0.,12.0,0.,12.0,0.,12.0,0.,12.0
1989-08-27T10:11:54.060 ,2,0,0.,12.0,0.,12.0,0.,12.0,0.,12.0
1989-08-27T10:12:06.060 ,1,0,0.,12.0,0.,12.0,0.,12.0,0.,12.0
1989-08-27T10:12:18.060 ,1,0,0.,12.0,0.,12.0,0.,12.0,0.,12.0
1989-08-27T10:12:30.060 ,1,0,0.,12.0,0.,12.0,0.,12.0,0.,12.0
1989-08-27T10:12:42.060 ,1,0,0.,12.0,0.,12.0,0.,12.0,0.,12.0
1989-08-27T10:12:54.060 ,0,0,0.,12.0,0.,12.0,0.,12.0,0.,12.0
1989-08-27T10:13:06.060 ,0,0,0.,12.0,0.,12.0,0.,12.0,0.,12.0
1989-08-27T10:13:18.060 ,0,0,0.,12.0,0.,12.0,0.,12.0,0.,12.0
1989-08-27T10:13:30.060 ,0,0,0.,12.0,0.,12.0,0.,12.0,0.,12.0
1989-08-27T10:13:42.060 ,0,0,0.,12.0,0.,12.0,0.,12.0,0.,12.0
1989-08-27T10:13:54.060 ,0,0,0.,12.0,0.,12.0,0.,12.0,0.,12.0
1989-08-27T10:14:06.060 ,0,0,0.,12.0,0.,12.0,0.,12.0,0.,12.0
1989-08-27T10:14:18.060 ,0,0,0.,12.0,0.,12.0,0.,12.0,0.,12.0
1989-08-27T10:14:30.060 ,1,0,0.,12.0,0.,12.0,0.,12.0,0.,12.0
1989-08-27T10:14:42.060 ,1,0,0.,12.0,0.,12.0,0.,12.0,0.,12.0
1989-08-27T10:14:54.060 ,1,0,0.,12.0,0.,12.0,0.,12.0,0.,12.0
1989-08-27T10:15:06.060 ,1,0,0.,12.0,0.,12.0,0.,12.0,0.,12.0
1989-08-27T10:15:18.060 ,2,0,0.,12.0,0.,12.0,0.,12.0,0.,12.0
1989-08-27T10:15:30.060 ,2,0,0.,12.0,0.,12.0,0.,12.0,0.,12.0
1989-08-27T10:15:42.060 ,2,0,0.,12.0,0.,12.0,0.,12.0,0.,12.0
1989-08-27T10:15:54.060 ,2,0,0.,12.0,0.,12.0,0.,12.0,0.,12.0
1989-08-27T10:16:06.060 ,3,0,0.,12.0,0.,12.0,0.,12.0,0.,12.0
1989-08-27T10:16:18.060 ,3,0,0.,12.0,0.,12.0,0.,12.0,0.,12.0
1989-08-27T10:16:30.060 ,3,0,0.,12.0,0.,12.0,0.,12.0,0.,12.0
1989-08-27T10:16:42.060 ,3,0,0.,12.0,0.,12.0,0.,12.0,0.,12.0
1989-08-27T10:16:54.060 ,4,0,0.,12.0,0.,12.0,0.,12.0,0.,12.0
1989-08-27T10:17:06.060 ,4,0,0.,12.0,0.,12.0,0.,12.0,0.,12.0
1989-08-27T10:17:18.060 ,4,0,0.,12.0,0.,12.0,0.,12.0,0.,12.0
1989-08-27T10:17:30.060 ,4,0,0.,12.0,0.,12.0,0.,12.0,0.,12.0
1989-08-27T10:17:42.060 ,5,0,0.,12.0,0.,12.0,0.,12.0,0.,12.0
1989-08-27T10:17:54.060 ,5,0,0.,12.0,0.,12.0,0.,12.0,0.,12.0
1989-08-27T10:18:06.060 ,5,0,0.,12.0,0.,12.0,0.,12.0,0.,12.0
1989-08-27T10:18:18.060 ,5,0,0.,12.0,0.,12.0,0.,12.0,0.,12.0
1989-08-27T10:18:30.060 ,6,0,0.,12.0,0.,12.0,0.,12.0,0.,12.0
1989-08-27T10:18:42.060 ,6,0,0.,12.0,0.,12.0,0.,12.0,0.,12.0
1989-08-27T10:18:54.060 ,6,0,0.,12.0,0.,12.0,0.,12.0,0.,12.0
1989-08-27T10:19:06.060 ,6,0,0.,12.0,0.,12.0,0.,12.0,0.,12.0
1989-08-27T10:19:18.060 ,7,0,0.,12.0,0.,12.0,0.,12.0,0.,12.0
1989-08-27T10:19:30.060 ,7,0,0.,12.0,0.,12.0,0.,12.0,0.,12.0
1989-08-27T10:19:42.060 ,7,0,0.,12.0,0.,12.0,0.,12.0,0.,12.0
1989-08-27T10:19:54.060 ,7,0,0.,12.0,0.,12.0,0.,12.0,0.,12.0